Retour au catalogue

GLOBALSTAR M069

ActifCommunicationsLEO
NORAD 31573·PAYLOAD·🇺🇸 United States

Lancé May 29, 2007 depuis Baikonur Cosmodrome

Loading…

Prochains Passages (prochaines 24 heures)

TLE

FraisSource: Space-Track

Époque: Sep 14, 2026, 16:02 UTC

1 31573U 07020C   26257.66819229 -.00000064  00000-0  26244-3 0  9995
2 31573  52.0065 358.8582 0001382 346.6975 160.2772 12.23474725889751

Suivez GLOBALSTAR M069 en temps réel avec AllMySat

Download on the App Store